Flag for U.S.A. Weather past 2 weeks in Salina, Kansas, U.S.A.

Now
90 °F

Scattered clouds.


Feels Like: 95 °F
Forecast: 71 / 94 °F
Wind: 3 mph from North

Location: Salina Municipal Airport

Current Time: Aug 1, 2015 at 1:14:46 PM

Latest Report: Aug 1, 2015 at 12:53 PM


Visibility: 10 mi

Pressure: 30.00 "Hg

Humidity: 52%

Dew point: 70 °F

Location of SalinaLocation

Historic Weather in Salina — Graph

°F

Salina temperature yesterday

Maximum temperature yesterday: 92 °F (at 2:53 PM)
Minimum temperature yesterday: 67 °F (at 5:53 AM)
Average temperature yesterday: 80 °F

Past Weeks' High & Low Weather Summary

 TemperatureHumidityPressure
High107 °F (Jul 24, 4:53 PM)93% (Jul 31, 5:53 AM)30.22 "Hg (Jul 31, 5:53 AM)
Low67 °F (Jul 29, 3:59 AM)24% (Jul 24, 4:53 PM)29.68 "Hg (Jul 17, 8:53 PM)
Average83 °F63%29.90 "Hg
* Reported Jul 17 11:53 AM — Aug 1 11:53 AM, Salina, Weather by CustomWeather, © 2015

Note: Actual official high and low records may vary slightly from our data, if they occured in-between our weather recording intervals... More about our weather records

Advertising

Salina weather history for previous 24 hours

 ConditionsComfort  
Time TempWeatherWind HumidityBarometerVisibility
11:53 AM
Sat, Aug 1
89 °FPassing clouds.3 mph53%30.03 "Hg10 mi
10:53 AM87 °FSunny.6 mph59%30.03 "Hg10 mi
9:53 AM84 °FSunny.5 mph67%30.03 "Hg10 mi
8:53 AM79 °FSunny.3 mph77%30.04 "Hg10 mi
7:53 AM74 °FSunny.3 mph88%30.03 "Hg8 mi
6:53 AM70 °FClear.6 mph90%30.02 "Hg7 mi
5:53 AM71 °FClear.No wind87%30.02 "Hg9 mi
4:53 AM70 °FClear.5 mph90%30.03 "Hg10 mi
3:53 AM72 °FClear.5 mph84%30.03 "Hg10 mi
2:53 AM72 °FClear.6 mph87%30.03 "Hg10 mi
1:53 AM75 °FClear.3 mph82%30.04 "Hg10 mi
12:53 AM74 °FClear.No wind82%30.04 "Hg10 mi
11:53 PM
Fri, Jul 31
77 °FClear.3 mph74%30.04 "Hg10 mi
10:53 PM77 °FClear.3 mph77%30.05 "Hg10 mi
9:53 PM81 °FClear.7 mph67%30.04 "Hg10 mi
8:53 PM81 °FSunny.6 mph69%30.01 "Hg10 mi
7:53 PM89 °FSunny.8 mph50%30.01 "Hg10 mi
6:53 PM91 °FSunny.8 mph47%30.01 "Hg10 mi
5:53 PM92 °FSunny.7 mph46%30.01 "Hg10 mi
4:53 PM92 °FSunny.8 mph46%30.03 "Hg10 mi
3:53 PM92 °FPassing clouds.6 mph49%30.05 "Hg10 mi
2:53 PM92 °FPassing clouds.6 mph47%30.08 "Hg10 mi
1:53 PM90 °FPartly sunny.5 mph54%30.10 "Hg10 mi
Weather by CustomWeather, © 2015

See weather overviewHow to use our weather pages